P/2006 S1 ( Christensen )

Japanese version
Home page
Total 6,336 html files since Dec. 4, 1995
Updated on February 4, 2007

---------------------------------------------------------------------

* Profile

Discovery Date September 16, 2006
Magnitude 17.4 mag
Discoverer Eric J. Christensen (Catalina Sky Survey)

* Pictures

* Orbital Elements

T 2006 Aug. 30.1833 TT                                  MPC
q   1.359263             (2000.0)            P               Q
n   0.1508238      Peri.  128.0484      +0.9401084      +0.3212627
a   3.495340       Node   213.6533      -0.3396175      +0.9114446
e   0.611121       Incl.   11.8669      +0.0292615      +0.2570194
P   6.53
From 272 observations 2006 Sept. 16-Oct. 28.

* Magnitudes Graph

        m1 = 18.0 + 5 log d + 10.0 log r

---------------------------------------------------------------------

The orbital elements are published on M.P.E.C. 2006-U85.
The magnitudes graphs are made with Comet for Windows.

---------------------------------------------------------------------

Copyright(C) 1995-2008 Seiichi Yoshida (comet@aerith.net). All rights reserved.